Torna al catalogo

BD-17

AttivoNavigazioneGEO
NORAD 40549·PAYLOAD·🇨🇳 China

Lanciato Mar 30, 2015 da Xichang Satellite Launch Center

Loading…

TLE

AggiornatoSource: Space-Track

Epoca: Sep 13, 2026, 01:51 UTC

1 40549U 15019A   26256.07752948 -.00000168  00000-0  00000-0 0  9997
2 40549  49.0267 294.3950 0038756 200.8292 340.5769  1.00289448 41955

Traccia BD-17 in tempo reale con AllMySat

Download on the App Store